KE5OYL Weather Reports


Display with metric or nautical units.
time (UTC)temp
F
wind
direction
speed
MPH
gust
MPH
rain 1hr
in
rain 24hr
in
rain mn
in
humidity
%
barometer
mb
20260906122644 78 61 1.0 3.0 0.00 0.00 0.00 88 1014.5
20260906122140 78 36 1.0 3.0 0.00 0.00 0.00 88 1014.6
20260906121636 78 41 2.0 3.0 0.00 0.00 0.00 88 1014.6
20260906121132 78 23 1.0 1.0 0.00 0.00 0.00 88 1014.7
20260906120628 78 40 2.0 2.0 0.00 0.00 0.00 87 1014.2
20260906120125 78 27 1.0 5.0 0.00 0.00 0.00 87 1014.3
20260906115625 78 59 1.0 2.0 0.00 0.00 0.00 87 1014.2
20260906115120 78 39 1.0 5.0 0.00 0.00 0.00 87 1014.3
20260906114614 78 52 2.0 2.0 0.00 0.00 0.00 87 1014.3
20260906114109 78 20 1.0 2.0 0.00 0.00 0.00 87 1014.0
20260906113609 78 52 2.0 3.0 0.00 0.00 0.00 87 1014.2
20260906113104 79 35 1.0 3.0 0.00 0.00 0.00 86 1014.2
20260906112603 79 82 3.0 3.0 0.00 0.00 0.00 86 1014.0
20260906112100 78 96 3.0 3.0 0.00 0.00 0.00 87 1014.2
20260906111559 79 37 2.0 3.0 0.00 0.00 0.00 86 1014.0
20260906111055 79 37 2.0 2.0 0.00 0.00 0.00 86 1014.2
20260906110555 79 55 3.0 3.0 0.00 0.00 0.00 86 1013.9
20260906110054 79 34 2.0 3.0 0.00 0.00 0.00 86 1013.8
20260906105549 79 58 2.0 2.0 0.00 0.00 0.00 85 1013.8
20260906105045 79 90 3.0 3.0 0.00 0.00 0.00 85 1013.7
20260906104543 79 45 2.0 3.0 0.00 0.00 0.00 85 1013.7
20260906104038 79 41 2.0 3.0 0.00 0.00 0.00 85 1013.7
20260906103536 79 21 1.0 1.0 0.00 0.00 0.00 85 1013.6
20260906103032 79 28 1.0 2.0 0.00 0.00 0.00 85 1013.8
20260906102531 79 24 1.0 3.0 0.00 0.00 0.00 85 1013.7
20260906102027 79 62 2.0 3.0 0.00 0.00 0.00 85 1013.9
20260906101521 79 31 1.0 2.0 0.00 0.00 0.00 84 1013.7
20260906101016 80 33 1.0 3.0 0.00 0.00 0.00 84 1013.8
20260906100512 80 67 3.0 3.0 0.00 0.00 0.00 84 1013.5
20260906100006 80 2 1.0 2.0 0.00 0.00 0.00 83 1013.5
20260906095501 80 26 1.0 2.0 0.00 0.00 0.00 83 1013.6
20260906094956 80 15 0.0 3.0 0.00 0.00 0.00 83 1013.3
20260906094455 80 38 1.0 3.0 0.00 0.00 0.00 83 1013.1
20260906093952 80 22 1.0 2.0 0.00 0.00 0.00 84 1013.4
20260906093447 80 95 3.0 5.0 0.00 0.00 0.00 84 1013.4
20260906092942 80 52 2.0 3.0 0.00 0.00 0.00 83 1013.3
20260906092442 80 56 2.0 5.0 0.00 0.00 0.00 83 1013.3
20260906091937 80 52 1.0 3.0 0.00 0.00 0.00 83 1013.0
20260906091433 80 30 1.0 2.0 0.00 0.00 0.00 82 1013.0
20260906090929 80 65 3.0 3.0 0.00 0.00 0.00 83 1013.0
20260906090424 80 19 0.0 1.0 0.00 0.00 0.00 83 1013.1
20260906085918 80 31 1.0 1.0 0.00 0.00 0.00 83 1013.2
20260906085412 80 31 1.0 2.0 0.00 0.00 0.00 83 1013.1
20260906084911 80 27 1.0 1.0 0.00 0.00 0.00 83 1013.2
20260906084406 80 30 1.0 1.0 0.00 0.00 0.00 83 1013.3
20260906083905 80 33 1.0 2.0 0.00 0.00 0.00 82 1013.2
20260906083401 80 29 2.0 2.0 0.00 0.00 0.00 82 1012.9
20260906082900 81 79 3.0 3.0 0.00 0.00 0.00 82 1013.1
20260906082355 81 63 3.0 3.0 0.00 0.00 0.00 82 1013.2
20260906081852 81 24 1.0 3.0 0.00 0.00 0.00 81 1013.2
20260906081347 82 52 2.0 3.0 0.00 0.00 0.00 80 1013.3
20260906080843 82 40 2.0 2.0 0.00 0.00 0.00 80 1013.2
20260906080339 82 95 1.0 3.0 0.00 0.00 0.00 79 1013.3
20260906075838 82 174 2.0 5.0 0.00 0.00 0.00 80 1013.3
20260906075333 82 38 2.0 5.0 0.00 0.00 0.00 79 1013.3
20260906074829 82 6 1.0 3.0 0.00 0.00 0.00 79 1013.3
20260906074328 82 15 0.0 2.0 0.00 0.00 0.00 79 1013.2
20260906073827 82 71 3.0 3.0 0.00 0.00 0.00 80 1013.4
20260906073322 81 151 2.0 3.0 0.00 0.00 0.00 80 1013.4
20260906072819 82 67 2.0 2.0 0.00 0.00 0.00 79 1013.3
20260906072314 82 32 2.0 2.0 0.00 0.00 0.00 80 1013.4
20260906071809 82 108 3.0 3.0 0.00 0.00 0.00 79 1013.3
20260906071304 82 8 1.0 2.0 0.00 0.00 0.00 80 1013.4
20260906070801 82 18 1.0 2.0 0.00 0.00 0.00 80 1013.3
20260906070256 82 195 3.0 3.0 0.00 0.00 0.00 80 1013.3
20260906065756 82 27 1.0 2.0 0.00 0.00 0.00 80 1013.3
20260906065251 82 329 1.0 2.0 0.00 0.00 0.00 80 1013.3
20260906064747 82 228 3.0 3.0 0.00 0.00 0.00 79 1013.3
20260906064243 82 191 3.0 5.0 0.00 0.00 0.00 79 1013.3
20260906063738 82 62 2.0 3.0 0.00 0.00 0.00 79 1013.4
20260906063233 82 88 2.0 3.0 0.00 0.00 0.00 78 1013.3
20260906062728 82 62 2.0 3.0 0.00 0.00 0.00 79 1013.6
20260906062227 82 94 2.0 5.0 0.00 0.00 0.00 79 1013.4
20260906061723 82 193 3.0 7.0 0.00 0.00 0.00 78 1013.7
20260906061219 82 240 2.0 3.0 0.00 0.00 0.00 78 1013.6
20260906060715 82 32 3.0 7.0 0.00 0.00 0.00 78 1013.6
20260906060212 82 38 0.0 3.0 0.00 0.00 0.00 78 1013.7
20260906055707 82 112 5.0 6.0 0.00 0.00 0.00 77 1013.7
20260906055203 82 24 2.0 3.0 0.00 0.00 0.00 76 1013.8
20260906054658 83 25 0.0 3.0 0.00 0.00 0.00 76 1013.5
20260906054152 83 35 1.0 6.0 0.00 0.00 0.00 76 1013.7
20260906053649 83 61 3.0 5.0 0.00 0.00 0.00 75 1013.6
20260906053144 83 111 4.0 6.0 0.00 0.00 0.00 74 1013.6
20260906052639 83 68 2.0 3.0 0.00 0.00 0.00 74 1013.5
20260906052136 83 39 1.0 5.0 0.00 0.00 0.00 73 1013.6
20260906051632 83 92 4.0 5.0 0.00 0.00 0.00 73 1013.5
20260906051132 84 25 1.0 2.0 0.00 0.00 0.00 72 1013.4
20260906050627 84 39 3.0 6.0 0.00 0.00 0.00 72 1013.4
20260906050122 84 18 1.0 3.0 0.00 0.00 0.00 71 1013.5
20260906045620 84 128 2.0 3.0 0.00 0.00 0.00 71 1013.3
20260906045116 84 72 2.0 3.0 0.00 0.00 0.00 71 1013.4
20260906044612 84 29 0.0 2.0 0.00 0.00 0.00 72 1013.3
20260906044107 84 41 2.0 3.0 0.00 0.00 0.00 72 1013.3
20260906043603 84 36 1.0 5.0 0.00 0.00 0.00 72 1013.5
20260906043058 84 70 2.0 3.0 0.00 0.00 0.00 71 1013.4
20260906042557 85 102 4.0 5.0 0.00 0.00 0.00 70 1013.3
20260906042052 85 8 1.0 5.0 0.00 0.00 0.00 70 1013.3
20260906041548 85 124 5.0 6.0 0.00 0.00 0.00 70 1013.5
20260906041043 85 35 2.0 5.0 0.00 0.00 0.00 69 1013.6
20260906040538 85 41 1.0 6.0 0.00 0.00 0.00 69 1013.6
20260906040034 86 90 2.0 7.0 0.00 0.00 0.00 69 1013.6
20260906035529 86 114 2.0 5.0 0.00 0.00 0.00 68 1013.4
20260906035025 86 92 4.0 6.0 0.00 0.00 0.00 68 1013.4
20260906034524 86 94 4.0 6.0 0.00 0.00 0.00 68 1013.5
20260906034020 86 60 4.0 5.0 0.00 0.00 0.00 67 1013.7
20260906033514 86 52 3.0 5.0 0.00 0.00 0.00 67 1013.6
20260906033010 86 39 2.0 3.0 0.00 0.00 0.00 66 1013.2
20260906032506 86 85 1.0 3.0 0.00 0.00 0.00 66 1013.5
20260906032001 87 68 3.0 5.0 0.00 0.00 0.00 66 1013.3
20260906031456 87 64 3.0 6.0 0.00 0.00 0.00 66 1013.4
20260906030952 87 83 3.0 5.0 0.00 0.00 0.00 65 1013.5
20260906030446 87 355 2.0 3.0 0.00 0.00 0.00 65 1013.4
20260906025946 87 340 1.0 3.0 0.00 0.00 0.00 65 1013.5
20260906025440 87 92 2.0 2.0 0.00 0.00 0.00 65 1013.6
20260906024939 87 81 3.0 5.0 0.00 0.00 0.00 65 1013.6
20260906024438 87 166 5.0 7.0 0.00 0.00 0.00 65 1013.4
20260906023933 87 138 5.0 7.0 0.00 0.00 0.00 65 1013.2
20260906023430 87 157 3.0 5.0 0.00 0.00 0.00 64 1013.4
20260906022924 87 75 5.0 6.0 0.00 0.00 0.00 64 1013.2
20260906022420 87 46 2.0 8.0 0.00 0.00 0.00 64 1013.2
20260906021915 87 107 2.0 7.0 0.00 0.00 0.00 63 1013.0
20260906021415 87 101 3.0 7.0 0.00 0.00 0.00 63 1013.1
20260906020909 87 50 2.0 5.0 0.00 0.00 0.00 63 1013.0
20260906020403 88 135 5.0 7.0 0.00 0.00 0.00 62 1012.8
20260906015857 88 29 3.0 7.0 0.00 0.00 0.00 62 1012.7
20260906015356 88 126 4.0 8.0 0.00 0.00 0.00 61 1012.6
20260906014851 88 159 4.0 7.0 0.00 0.00 0.00 61 1012.6
20260906014351 89 50 3.0 3.0 0.00 0.00 0.00 60 1012.4
20260906013847 88 152 3.0 8.0 0.00 0.00 0.00 60 1012.5
20260906013342 89 118 4.0 10.0 0.00 0.00 0.00 60 1012.2
20260906012838 89 58 2.0 8.0 0.00 0.00 0.00 59 1012.2
20260906012333 89 67 6.0 7.0 0.00 0.00 0.00 59 1012.2
20260906011832 89 205 5.0 8.0 0.00 0.00 0.00 59 1012.0
20260906011327 89 87 7.0 10.0 0.00 0.00 0.00 59 1012.0
20260906010823 89 126 6.0 16.0 0.00 0.00 0.00 58 1012.1
20260906010319 90 101 5.0 8.0 0.00 0.00 0.00 57 1012.1
20260906005814 90 135 5.0 9.0 0.00 0.00 0.00 57 1012.1
20260906005313 90 179 11.0 14.0 0.00 0.00 0.00 57 1012.0
20260906004812 90 95 4.0 13.0 0.00 0.00 0.00 57 1012.0
20260906004312 91 99 3.0 10.0 0.00 0.00 0.00 55 1011.9
20260906003808 91 66 5.0 8.0 0.00 0.00 0.00 54 1011.9
20260906003303 92 93 7.0 11.0 0.00 0.00 0.00 54 1012.0
20260906002759 93 154 6.0 13.0 0.00 0.00 0.00 52 1011.9
20260906002258 93 133 6.0 14.0 0.00 0.00 0.00 51 1011.8
20260906001754 94 143 8.0 13.0 0.00 0.00 0.00 50 1011.9
20260906001248 95 137 8.0 14.0 0.00 0.00 0.00 48 1011.3
20260906000743 96 131 4.0 7.0 0.00 0.00 0.00 45 1011.4
20260906000241 97 132 9.0 13.0 0.00 0.00 0.00 44 1011.0
20260905235733 98 84 4.0 8.0 0.00 0.00 0.00 42 1011.2
20260905235233 98 52 6.0 9.0 0.00 0.00 0.00 42 1011.2
20260905234728 98 112 3.0 9.0 0.00 0.00 0.00 41 1011.1
20260905234224 98 70 5.0 9.0 0.00 0.00 0.00 41 1011.1
20260905233719 99 89 6.0 8.0 0.00 0.00 0.00 41 1011.1
20260905233218 98 1 0.0 2.0 0.00 0.00 0.00 40 1011.0
20260905232713 98 26 4.0 11.0 0.00 0.00 0.00 42 1010.9
20260905232209 98 12 3.0 6.0 0.00 0.00 0.00 41 1011.0
20260905231705 98 28 2.0 5.0 0.00 0.00 0.00 41 1011.0
20260905231200 99 27 3.0 8.0 0.00 0.00 0.00 41 1011.0
20260905230656 98 14 5.0 10.0 0.00 0.00 0.00 41 1011.0
20260905230154 98 94 2.0 8.0 0.00 0.00 0.00 41 1011.1
20260905225653 98 49 5.0 6.0 0.00 0.00 0.00 40 1010.9
20260905225148 99 104 8.0 11.0 0.00 0.00 0.00 41 1011.0
20260905224648 100 70 3.0 6.0 0.00 0.00 0.00 39 1010.8
20260905224148 100 54 3.0 3.0 0.00 0.00 0.00 38 1010.9
20260905223644 100 91 2.0 5.0 0.00 0.00 0.00 38 1010.8
20260905223141 99 225 5.0 6.0 0.00 0.00 0.00 39 1010.8
20260905222636 100 249 3.0 6.0 0.00 0.00 0.00 39 1010.9
20260905222131 100 124 3.0 8.0 0.00 0.00 0.00 39 1010.9
20260905221627 100 229 4.0 5.0 0.00 0.00 0.00 38 1010.9
20260905221123 100 172 4.0 7.0 0.00 0.00 0.00 38 1011.0
20260905220619 99 172 4.0 8.0 0.00 0.00 0.00 39 1011.3
20260905220115 98 29 2.0 6.0 0.00 0.00 0.00 40 1011.2
20260905215614 98 192 5.0 7.0 0.00 0.00 0.00 40 1011.0
20260905215110 98 24 1.0 5.0 0.00 0.00 0.00 41 1011.2
20260905214606 98 75 4.0 6.0 0.00 0.00 0.00 40 1011.3
20260905214106 98 5 0.0 3.0 0.00 0.00 0.00 40 1011.3
20260905213602 97 131 4.0 5.0 0.00 0.00 0.00 40 1011.2
20260905213056 98 122 6.0 7.0 0.00 0.00 0.00 40 1011.2
20260905212551 97 8 0.0 2.0 0.00 0.00 0.00 40 1011.3
20260905212050 97 356 0.0 3.0 0.00 0.00 0.00 41 1011.4
20260905211546 97 338 1.0 2.0 0.00 0.00 0.00 41 1011.4
20260905211042 97 15 1.0 5.0 0.00 0.00 0.00 41 1011.4
20260905210537 96 3 1.0 5.0 0.00 0.00 0.00 42 1011.6
20260905210032 98 33 5.0 7.0 0.00 0.00 0.00 41 1011.6
20260905205531 97 32 3.0 3.0 0.00 0.00 0.00 41 1011.9
20260905205031 96 327 5.0 6.0 0.00 0.00 0.00 42 1011.8
20260905204526 97 27 2.0 3.0 0.00 0.00 0.00 41 1011.9
20260905204020 97 33 1.0 3.0 0.00 0.00 0.00 42 1012.0
20260905203515 96 25 2.0 5.0 0.00 0.00 0.00 42 1012.1
20260905203010 98 20 1.0 3.0 0.00 0.00 0.00 42 1012.0
20260905202506 97 37 3.0 7.0 0.00 0.00 0.00 42 1012.4
20260905202001 99 16 2.0 5.0 0.00 0.00 0.00 40 1012.4
20260905201456 98 12 3.0 5.0 0.00 0.00 0.00 41 1012.4
20260905200955 98 86 5.0 6.0 0.00 0.00 0.00 42 1012.3
20260905200452 97 128 4.0 8.0 0.00 0.00 0.00 42 1012.5
20260905195950 97 33 2.0 10.0 0.00 0.00 0.00 43 1012.6
20260905195445 98 63 7.0 10.0 0.00 0.00 0.00 41 1012.5
20260905194941 98 352 0.0 5.0 0.00 0.00 0.00 42 1012.5
20260905194440 99 314 3.0 3.0 0.00 0.00 0.00 41 1012.7
20260905193935 97 88 5.0 7.0 0.00 0.00 0.00 41 1013.1
20260905193435 97 197 0.0 3.0 0.00 0.00 0.00 41 1013.0
20260905192930 96 198 4.0 7.0 0.00 0.00 0.00 41 1013.2
20260905192425 98 99 5.0 7.0 0.00 0.00 0.00 41 1013.2
20260905191921 96 26 3.0 3.0 0.00 0.00 0.00 42 1013.2
20260905191420 98 311 1.0 6.0 0.00 0.00 0.00 41 1013.4
20260905190914 96 39 2.0 3.0 0.00 0.00 0.00 41 1013.6
20260905190412 97 143 3.0 8.0 0.00 0.00 0.00 42 1013.4
20260905185911 96 26 1.0 8.0 0.00 0.00 0.00 44 1013.7
20260905185406 96 20 1.0 6.0 0.00 0.00 0.00 42 1013.8
20260905184904 97 49 3.0 5.0 0.00 0.00 0.00 42 1013.8
20260905184359 95 39 1.0 9.0 0.00 0.00 0.00 43 1013.9
20260905183857 96 71 2.0 3.0 0.00 0.00 0.00 43 1014.2
20260905183353 96 91 7.0 9.0 0.00 0.00 0.00 43 1014.2
20260905182848 96 2 1.0 2.0 0.00 0.00 0.00 45 1014.2
20260905182347 95 341 4.0 5.0 0.00 0.00 0.00 45 1014.3
20260905181843 94 13 2.0 3.0 0.00 0.00 0.00 46 1014.4
20260905181343 94 347 2.0 7.0 0.00 0.00 0.00 47 1014.5
20260905180842 96 21 1.0 3.0 0.00 0.00 0.00 46 1014.4
20260905180337 97 143 3.0 6.0 0.00 0.00 0.00 44 1014.5
20260905175832 97 302 0.0 3.0 0.00 0.00 0.00 43 1014.9
20260905175326 96 36 1.0 5.0 0.00 0.00 0.00 45 1014.7
20260905174821 94 155 4.0 5.0 0.00 0.00 0.00 46 1014.5
20260905174317 95 282 4.0 6.0 0.00 0.00 0.00 46 1014.9
20260905173813 96 79 3.0 6.0 0.00 0.00 0.00 44 1015.1
20260905173309 94 26 1.0 3.0 0.00 0.00 0.00 46 1014.8
20260905172809 95 114 7.0 10.0 0.00 0.00 0.00 46 1015.1
20260905172307 94 179 4.0 7.0 0.00 0.00 0.00 47 1014.9
20260905171803 94 169 3.0 3.0 0.00 0.00 0.00 47 1015.2
20260905171300 94 71 4.0 8.0 0.00 0.00 0.00 47 1015.2
20260905170756 95 146 4.0 6.0 0.00 0.00 0.00 45 1015.2
20260905170251 95 8 1.0 2.0 0.00 0.00 0.00 46 1015.1
20260905165750 94 281 2.0 3.0 0.00 0.00 0.00 48 1015.3
20260905165246 94 127 4.0 5.0 0.00 0.00 0.00 47 1015.3
20260905164746 93 81 2.0 5.0 0.00 0.00 0.00 47 1015.4
20260905164240 95 345 3.0 5.0 0.00 0.00 0.00 49 1015.1
20260905163736 93 347 2.0 5.0 0.00 0.00 0.00 51 1015.4
20260905163233 94 132 1.0 3.0 0.00 0.00 0.00 52 1015.5
20260905162728 93 41 3.0 6.0 0.00 0.00 0.00 52 1015.2
20260905162228 91 8 2.0 5.0 0.00 0.00 0.00 54 1015.4
20260905161723 90 20 3.0 6.0 0.00 0.00 0.00 56 1015.4
20260905161221 91 17 3.0 3.0 0.00 0.00 0.00 54 1015.3
20260905160720 93 353 4.0 5.0 0.00 0.00 0.00 53 1015.4
20260905160220 91 6 1.0 7.0 0.00 0.00 0.00 55 1015.4
20260905155714 90 26 3.0 3.0 0.00 0.00 0.00 57 1015.2
20260905155213 91 6 3.0 3.0 0.00 0.00 0.00 57 1015.3
20260905154708 90 57 2.0 2.0 0.00 0.00 0.00 57 1015.3
20260905154204 89 314 4.0 6.0 0.00 0.00 0.00 59 1015.6
20260905153659 91 294 3.0 3.0 0.00 0.00 0.00 58 1015.4
20260905153154 90 8 3.0 3.0 0.00 0.00 0.00 59 1015.6
20260905152649 89 353 3.0 6.0 0.00 0.00 0.00 61 1015.4
20260905152144 89 225 5.0 6.0 0.00 0.00 0.00 61 1015.6
20260905151639 89 32 0.0 3.0 0.00 0.00 0.00 61 1015.3
20260905151134 88 313 3.0 6.0 0.00 0.00 0.00 63 1015.4
20260905150629 87 343 1.0 6.0 0.00 0.00 0.00 65 1015.4
20260905150128 88 258 7.0 8.0 0.00 0.00 0.00 63 1015.2
20260905145626 87 356 1.0 3.0 0.00 0.00 0.00 66 1015.1
20260905145125 88 342 1.0 6.0 0.00 0.00 0.00 65 1015.2
20260905144620 87 243 4.0 7.0 0.00 0.00 0.00 67 1015.4
20260905144120 87 91 3.0 3.0 0.00 0.00 0.00 65 1015.2
20260905143614 87 34 1.0 5.0 0.00 0.00 0.00 66 1015.4
20260905143109 87 161 3.0 5.0 0.00 0.00 0.00 67 1015.3
20260905142608 85 8 0.0 3.0 0.00 0.00 0.00 69 1015.2
20260905142102 85 236 3.0 5.0 0.00 0.00 0.00 70 1015.4
20260905141601 85 346 2.0 5.0 0.00 0.00 0.00 70 1015.5
20260905141058 84 2 0.0 2.0 0.00 0.00 0.00 70 1015.2
20260905140553 84 331 2.0 3.0 0.00 0.00 0.00 70 1015.2
20260905140052 84 258 3.0 5.0 0.00 0.00 0.00 71 1015.0
20260905135548 84 286 2.0 2.0 0.00 0.00 0.00 70 1015.1
20260905135048 84 247 3.0 5.0 0.00 0.00 0.00 71 1015.4
20260905134543 84 241 3.0 5.0 0.00 0.00 0.00 70 1015.3
20260905134041 84 24 1.0 2.0 0.00 0.00 0.00 70 1015.1
20260905133536 84 324 2.0 3.0 0.00 0.00 0.00 71 1015.2
20260905133031 84 284 2.0 3.0 0.00 0.00 0.00 70 1015.1
20260905132531 83 34 1.0 2.0 0.00 0.00 0.00 71 1015.1
20260905132026 84 7 1.0 1.0 0.00 0.00 0.00 71 1015.1
20260905131521 83 56 1.0 3.0 0.00 0.00 0.00 72 1014.9
20260905131016 84 136 2.0 2.0 0.00 0.00 0.00 71 1015.1
20260905130515 83 17 0.0 1.0 0.00 0.00 0.00 72 1014.8
20260905130011 81 359 1.0 2.0 0.00 0.00 0.00 74 1014.6
20260905125505 81 343 2.0 2.0 0.00 0.00 0.00 74 1014.7
20260905125000 81 73 2.0 3.0 0.00 0.00 0.00 74 1014.7
20260905124457 81 34 2.0 2.0 0.00 0.00 0.00 75 1014.6
20260905123952 81 34 2.0 2.0 0.00 0.00 0.00 75 1014.7
20260905123449 81 54 3.0 3.0 0.00 0.00 0.00 75 1014.7